User: anonymous   Login
Location: Unspecified
(0.0000°N, 0.0000°E)
Time: 19:59:56
(UTC+00:00)
Language:

NUSAT 2 - Orbit

View from above orbital plane
View from above orbital plane
View from above satellite
View from above satellite

Ground track
Ground track

The orbit data is extracted from the following two-line orbital elements,

1 41558U 16033C   17144.78181820 +.00001685 +00000-0 +66566-4 0  9991
2 41558 097.4666 224.3486 0015576 089.7398 270.5626 15.26836052054858
Epoch (UTC): 24 May 2017 18:45:49
Eccentricity: 0.0015576
inclination: 97.4666°
perigee height: 474 km
apogee height: 496 km
right ascension of ascending node: 224.3486°
argument of perigee: 89.7398°
revolutions per day: 15.26836052
mean anomaly at epoch: 270.5626°
orbit number at epoch: 5485

The dashed part of the orbit path shows where the satellite is in the earth's shadow,  

DLR